Lid_Strength_Index
13 12 12 11 11 11 12 13 13 12 13 11 9 8 8 7 7 6 6 6 5 5 5 4 3 3 2 2 2 1 2 2 2 1 1 1 1 1 0 1 1 1 1 0
14 12 12 11 10 11 11 11 11 11 12 9 8 7 8 8 7 7 7 6 5 5 4 4 3 3 3 2 2 1 2 2 2 3 3 3 2 1 1 1 1 1 1 1
15 14 12 13 11 11 11 10 10 12 10 9 9 8 8 8 7 6 6 5 5 4 4 3 3 3 3 3 2 3 3 3 2 3 3 2 2 1 1 1 1 1 1 1
15 15 16 11 10 10 10 9 9 9 9 8 8 7 6 5 6 6 5 5 5 4 3 3 3 3 3 2 2 2 2 2 2 2 2 2 1 2 1 1 1 1 1 1
15 16 14 11 9 10 11 11 8 9 8 8 7 7 7 5 4 4 4 4 3 3 3 3 3 3 2 2 3 2 2 3 2 1 1 1 2 2 2 1 1 2 1 1
15 15 16 12 9 8 8 13 8 8 8 8 7 11 9 5 4 4 4 4 3 3 3 3 3 3 3 4 3 3 3 2 1 1 1 2 1 2 2 2 1 1 1 1
14 14 12 10 8 8 13 12 7 7 7 7 9 7 6 4 4 4 4 4 3 3 3 3 3 3 3 3 3 2 2 1 1 1 1 1 1 2 2 2 2 2 3 2
14 15 15 7 7 10 9 7 6 6 6 7 6 5 5 5 4 4 4 3 4 4 4 3 3 3 3 3 2 2 1 2 2 2 2 1 2 2 2 2 3 4 4 3
12 12 9 7 7 6 6 7 7 6 6 5 5 5 5 5 4 4 3 3 3 3 3 3 2 3 3 2 2 1 2 2 2 2 1 1 2 2 2 1 2 2 2 2
10 9 8 7 6 6 5 6 5 6 6 6 6 5 5 5 5 4 4 3 3 3 3 3 3 3 3 2 2 2 3 2 2 2 2 1 1 1 2 2 2 2 3 3
10 9 8 7 7 6 6 6 6 5 5 4 4 5 4 4 4 4 3 3 3 3 3 3 3 3 2 2 2 2 2 2 2 2 2 2 3 4 3 3 4 2 2 2
10 8 8 7 6 6 6 5 5 4 4 3 4 4 4 4 4 3 3 3 3 3 3 2 2 2 2 2 2 2 2 2 3 2 2 2 2 2 9 8 10 12 10 7
8 7 6 5 4 5 5 4 4 4 4 4 4 4 4 4 3 4 3 3 3 3 3 3 2 2 2 1 2 3 2 1 2 2 2 2 2 2 3 6 9 10 12 12
6 6 7 5 6 5 4 4 4 3 4 4 4 3 3 4 3 3 3 3 2 2 2 2 2 2 2 2 1 2 1 7 2 1 2 2 2 2 2 2 3 3 8 11
6 5 5 5 5 5 4 4 4 4 4 4 4 3 3 4 4 3 3 2 2 2 2 2 2 2 2 2 2 1 1 2 2 2 3 3 2 2 2 2 2 2 4 8
5 5 6 6 6 5 5 4 5 5 4 4 4 4 3 3 3 4 3 3 3 3 2 2 2 2 2 2 1 1 1 3 3 2 3 2 2 2 2 2 2 2 2 2
7 7 7 7 6 6 6 5 4 4 4 4 4 3 3 4 5 3 3 2 2 2 2 2 2 2 2 3 3 1 1 1 3 2 2 2 2 2 2 2 2 2 2 2
6 5 6 6 6 6 6 5 4 4 4 3 3 3 4 5 4 3 3 3 3 3 2 1 1 1 1 2 3 3 3 2 2 2 2 2 2 2 2 2 2 2 2 3
4 5 5 4 5 6 5 5 4 3 3 3 3 4 3 3 3 3 3 3 4 4 2 1 2 3 3 2 1 1 1 1 2 2 2 3 2 2 2 2 2 2 2 2
4 4 4 5 5 5 5 4 3 3 3 3 4 4 4 4 4 3 3 3 4 2 2 1 1 1 1 1 2 1 1 2 2 2 1 2 2 2 2 6 3 2 2 2
5 4 4 4 5 5 4 4 3 4 4 4 4 4 4 4 3 3 3 4 2 2 2 2 1 1 1 1 1 1 1 2 2 2 2 2 2 2 2 1 2 2 1 1
6 5 4 4 5 5 4 3 3 3 4 4 4 4 4 4 4 3 3 4 4 5 3 2 2 2 1 1 2 2 2 2 1 2 2 2 2 2 2 2 2 1 1 1
6 6 5 5 4 5 4 3 3 3 4 4 4 4 4 4 3 3 4 3 3 4 2 2 3 3 3 1 2 2 2 2 1 1 1 1 1 1 2 1 1 1 1 1
7 6 6 5 5 4 5 4 4 3 3 4 4 4 4 4 4 3 2 4 5 4 3 2 2 4 4 1 2 2 2 1 1 1 1 7 1 1 1 1 1 1 1 2
6 6 6 6 6 5 4 4 4 4 4 5 4 4 4 3 3 3 2 2 6 4 3 4 4 4 2 2 2 2 2 2 1 1 1 1 1 1 1 1 1 1 1 1
6 6 5 5 5 5 5 4 4 4 4 5 5 4 4 4 4 3 3 4 3 4 2 2 2 2 2 3 2 2 2 1 2 1 2 1 1 1 1 1 1 1 1 0
6 7 5 5 3 4 4 4 4 4 4 4 4 4 4 4 3 3 4 2 2 2 3 3 3 4 3 3 3 3 3 2 4 2 2 2 1 0 1 0 0 0 1 1